QFA2315 KBOS-CYWG

Flight info

Callsign QFA2315
Flight time N/A
Altitude 36000
Route REVSS6 REVSS DCT CTR DCT RAKAM/N0453F380 DCT BURWA DCT TRUDY DCT OMVEG DCT EMIVA NORAK6
Aircraft A320/M-SDE3FGHIRWY/LB1

Departure

Time N/A
Airport Boston Logan International Airport (KBOS)

Arrival

Time 2026-05-07 02:35
Airport Winnipeg / James Armstrong Richardson International Airport (CYWG)
Time Latitude Longitude Altitude Speed Heading
2026-05-07 01:55 50.03362 -91.66219 36031 ft 440 kts 297°
2026-05-07 01:56 50.04765 -91.70449 36028 ft 440 kts 297°
2026-05-07 01:56 50.07566 -91.78905 36028 ft 440 kts 297°
2026-05-07 01:57 50.10117 -91.87561 35954 ft 440 kts 286°
2026-05-07 01:57 50.10694 -91.92236 35954 ft 440 kts 275°
2026-05-07 01:57 50.10684 -91.96996 35954 ft 442 kts 265°
2026-05-07 01:58 50.09696 -92.06463 35957 ft 443 kts 262°
2026-05-07 01:58 50.08668 -92.15914 35974 ft 443 kts 262°
2026-05-07 01:59 50.07636 -92.25366 35991 ft 443 kts 262°
2026-05-07 01:59 50.06596 -92.34818 35999 ft 443 kts 262°
2026-05-07 02:00 50.05550 -92.44262 36017 ft 443 kts 262°
2026-05-07 02:00 50.04497 -92.53708 36021 ft 443 kts 262°
2026-05-07 02:01 50.03438 -92.63149 36022 ft 443 kts 262°
2026-05-07 02:01 50.02369 -92.72587 36025 ft 443 kts 261°
2026-05-07 02:02 50.01289 -92.81967 36017 ft 443 kts 262°
2026-05-07 02:02 50.00195 -92.91402 36021 ft 444 kts 262°
2026-05-07 02:03 49.99094 -93.00838 36024 ft 444 kts 262°
2026-05-07 02:03 49.97992 -93.10268 36024 ft 443 kts 261°
2026-05-07 02:04 49.96886 -93.19684 36017 ft 444 kts 262°
2026-05-07 02:04 49.95765 -93.29117 36020 ft 444 kts 261°
2026-05-07 02:05 49.94627 -93.38541 36026 ft 444 kts 261°
2026-05-07 02:05 49.93478 -93.47968 36030 ft 444 kts 261°
2026-05-07 02:06 49.92335 -93.57391 36032 ft 444 kts 261°
2026-05-07 02:06 49.91188 -93.66809 36016 ft 444 kts 261°
2026-05-07 02:07 49.90029 -93.76220 36022 ft 444 kts 261°
2026-05-07 02:07 49.88473 -93.88734 36026 ft 444 kts 261°
2026-05-07 02:08 49.87294 -93.98131 36013 ft 444 kts 261°
2026-05-07 02:08 49.86106 -94.07530 36008 ft 444 kts 261°
2026-05-07 02:09 49.84907 -94.16933 35996 ft 444 kts 261°
2026-05-07 02:09 49.83713 -94.26316 35983 ft 444 kts 261°
2026-05-07 02:10 49.82508 -94.35715 35986 ft 444 kts 261°
2026-05-07 02:10 49.81291 -94.45087 35991 ft 444 kts 261°
2026-05-07 02:11 49.80065 -94.54463 35981 ft 444 kts 261°
2026-05-07 02:11 49.78828 -94.63855 35434 ft 449 kts 261°
2026-05-07 02:12 49.78202 -94.68612 34673 ft 449 kts 261°
2026-05-07 02:12 49.77580 -94.73327 34146 ft 444 kts 261°
2026-05-07 02:12 49.76963 -94.77976 33607 ft 437 kts 260°
2026-05-07 02:12 49.76350 -94.82523 33329 ft 427 kts 260°
2026-05-07 02:13 49.75749 -94.86981 32980 ft 421 kts 260°
2026-05-07 02:13 49.75210 -94.91407 32402 ft 416 kts 265°
2026-05-07 02:13 49.75059 -94.95781 31814 ft 411 kts 271°
2026-05-07 02:13 49.75061 -95.00238 31214 ft 408 kts 271°
2026-05-07 02:14 49.75060 -95.04613 30601 ft 406 kts 271°
2026-05-07 02:14 49.75054 -95.08908 29988 ft 404 kts 271°
2026-05-07 02:14 49.75043 -95.13238 29340 ft 400 kts 271°
2026-05-07 02:14 49.75027 -95.17519 28756 ft 396 kts 271°
2026-05-07 02:15 49.75012 -95.21753 28176 ft 392 kts 271°
2026-05-07 02:15 49.74996 -95.25946 27607 ft 388 kts 271°
2026-05-07 02:15 49.74980 -95.30098 27037 ft 384 kts 271°
2026-05-07 02:15 49.74962 -95.34213 26475 ft 381 kts 271°
2026-05-07 02:16 49.74944 -95.38305 25928 ft 378 kts 271°
2026-05-07 02:16 49.74925 -95.42356 25370 ft 376 kts 271°
2026-05-07 02:16 49.74905 -95.46369 24859 ft 372 kts 271°
2026-05-07 02:16 49.74885 -95.50361 24350 ft 370 kts 271°
2026-05-07 02:17 49.74861 -95.54332 23857 ft 367 kts 271°
2026-05-07 02:17 49.74835 -95.58256 23323 ft 364 kts 271°
2026-05-07 02:17 49.74806 -95.62149 22846 ft 360 kts 271°
2026-05-07 02:17 49.74777 -95.66001 22382 ft 355 kts 271°
2026-05-07 02:18 49.74750 -95.69787 21920 ft 351 kts 271°
2026-05-07 02:18 49.74724 -95.73538 21470 ft 347 kts 271°
2026-05-07 02:18 49.74698 -95.77248 21008 ft 343 kts 272°
2026-05-07 02:18 49.74671 -95.80924 20548 ft 341 kts 272°
2026-05-07 02:19 49.74643 -95.84574 20062 ft 339 kts 272°
2026-05-07 02:19 49.74613 -95.88204 19591 ft 337 kts 272°
2026-05-07 02:19 49.74581 -95.91809 19129 ft 336 kts 272°
2026-05-07 02:19 49.74544 -95.95420 18642 ft 335 kts 272°
2026-05-07 02:20 49.74506 -95.99012 18133 ft 335 kts 272°
2026-05-07 02:20 49.74469 -96.02604 17622 ft 333 kts 272°
2026-05-07 02:20 49.74431 -96.06174 17143 ft 331 kts 272°
2026-05-07 02:20 49.74389 -96.09725 16666 ft 330 kts 272°
2026-05-07 02:21 49.74345 -96.13260 16193 ft 328 kts 272°
2026-05-07 02:21 49.74302 -96.16781 15719 ft 327 kts 272°
2026-05-07 02:21 49.74263 -96.20244 15259 ft 326 kts 272°
2026-05-07 02:21 49.74222 -96.23741 14791 ft 325 kts 272°
2026-05-07 02:22 49.74181 -96.27267 14317 ft 324 kts 272°
2026-05-07 02:22 49.74140 -96.30746 13845 ft 323 kts 272°
2026-05-07 02:22 49.74097 -96.34169 13328 ft 322 kts 272°
2026-05-07 02:22 49.74053 -96.37616 12850 ft 319 kts 272°
2026-05-07 02:23 49.74007 -96.41026 12377 ft 316 kts 272°
2026-05-07 02:23 49.73957 -96.44407 11889 ft 313 kts 272°
2026-05-07 02:23 49.73905 -96.47758 11413 ft 311 kts 272°
2026-05-07 02:23 49.73855 -96.51087 10917 ft 309 kts 272°
2026-05-07 02:24 49.73811 -96.54396 10442 ft 306 kts 272°
2026-05-07 02:24 49.73798 -96.57620 10292 ft 293 kts 273°
2026-05-07 02:24 49.73799 -96.60705 10160 ft 281 kts 274°
2026-05-07 02:24 49.73803 -96.63680 9913 ft 274 kts 274°
2026-05-07 02:25 49.73808 -96.66594 9754 ft 270 kts 274°
2026-05-07 02:25 49.73814 -96.69495 9465 ft 270 kts 274°
2026-05-07 02:25 49.73816 -96.72397 9000 ft 270 kts 273°
2026-05-07 02:25 49.73811 -96.75274 8624 ft 266 kts 273°
2026-05-07 02:26 49.73805 -96.78130 8185 ft 264 kts 273°
2026-05-07 02:26 49.73794 -96.80930 7864 ft 258 kts 272°
2026-05-07 02:26 49.73781 -96.83662 7289 ft 252 kts 272°
2026-05-07 02:26 49.73771 -96.86357 6646 ft 251 kts 272°
2026-05-07 02:27 49.73762 -96.89038 6276 ft 247 kts 272°
2026-05-07 02:27 49.73752 -96.91623 6143 ft 234 kts 272°
2026-05-07 02:27 49.73743 -96.94101 6051 ft 228 kts 272°
2026-05-07 02:27 49.73734 -96.96544 6036 ft 227 kts 272°
2026-05-07 02:28 49.73717 -96.98992 5811 ft 229 kts 271°
2026-05-07 02:28 49.73679 -97.01441 5509 ft 227 kts 271°
2026-05-07 02:28 49.73635 -97.03882 5226 ft 227 kts 271°
2026-05-07 02:28 49.73591 -97.06326 4938 ft 228 kts 271°
2026-05-07 02:29 49.73549 -97.08772 4663 ft 228 kts 271°
2026-05-07 02:29 49.73505 -97.11166 4551 ft 216 kts 271°
2026-05-07 02:29 49.73463 -97.13438 4476 ft 210 kts 271°
2026-05-07 02:29 49.73505 -97.15662 4372 ft 203 kts 280°
2026-05-07 02:30 49.73719 -97.17826 4016 ft 204 kts 280°
2026-05-07 02:30 49.73934 -97.20003 3700 ft 205 kts 280°
2026-05-07 02:30 49.74151 -97.22183 3423 ft 204 kts 282°
2026-05-07 02:30 49.74635 -97.24155 3368 ft 191 kts 305°
2026-05-07 02:31 49.75485 -97.25637 3303 ft 181 kts 324°
2026-05-07 02:31 49.76575 -97.26566 3120 ft 178 kts 343°
2026-05-07 02:31 49.77736 -97.26852 3052 ft 169 kts
2026-05-07 02:31 49.78892 -97.26640 2968 ft 166 kts
2026-05-07 02:32 49.80034 -97.26377 2788 ft 165 kts
2026-05-07 02:32 49.81172 -97.26115 2583 ft 163 kts
2026-05-07 02:32 49.82302 -97.25854 2356 ft 164 kts
2026-05-07 02:32 49.83427 -97.25595 2120 ft 158 kts
2026-05-07 02:33 49.84454 -97.25358 1913 ft 142 kts
2026-05-07 02:33 49.85400 -97.25140 1696 ft 134 kts 10°
2026-05-07 02:33 49.86307 -97.24930 1488 ft 130 kts 10°
2026-05-07 02:33 49.87199 -97.24724 1298 ft 129 kts 11°
2026-05-07 02:34 49.88075 -97.24521 1122 ft 126 kts 11°
2026-05-07 02:34 49.88940 -97.24321 950 ft 125 kts 11°
2026-05-07 02:34 49.89796 -97.24124 794 ft 120 kts 11°
2026-05-07 02:34 49.90449 -97.23970 787 ft 56 kts
2026-05-07 02:35 49.90710 -97.23901 788 ft 24 kts 20°
2026-05-07 02:35 49.90813 -97.23713 787 ft 18 kts 75°
2026-05-07 02:35 49.90826 -97.23624 786 ft 0 kts 79°
2026-05-07 02:36 49.90832 -97.23575 786 ft 14 kts 79°
2026-05-07 02:36 49.90854 -97.23399 786 ft 18 kts 79°
2026-05-07 02:36 49.90873 -97.23195 786 ft 20 kts 84°
2026-05-07 02:36 49.90886 -97.22965 786 ft 22 kts 86°
2026-05-07 02:37 49.90862 -97.22800 786 ft 15 kts 126°
2026-05-07 02:37 49.90795 -97.22657 786 ft 18 kts 126°
2026-05-07 02:37 49.90731 -97.22574 786 ft 10 kts 165°
2026-05-07 02:37 49.90687 -97.22562 786 ft 3 kts 170°
2026-05-07 02:38 49.90681 -97.22560 786 ft 0 kts 170°